TWB724 RJFF-RKSS

Flight info

Callsign TWB724
Flight time 1h 1m
Altitude 28000
Route DGC G339 BEETL Y208 INVOK Z91 PSN Y782 BITUX Z53 BASEM Y685 GUKDO GUKDO2T
Aircraft B738/M-SDE2E3FGHIRWXY/LB1

Departure

Time 2026-04-28 04:37
Airport Fukuoka Airport (RJFF)

Arrival

Time 2026-04-28 05:38
Airport Gimpo International Airport (RKSS)
Time Latitude Longitude Altitude Speed Heading
2026-04-28 04:17 33.58570 130.44499 33 ft 0 kts 242°
2026-04-28 04:29 33.58578 130.44519 33 ft 4 kts 243°
2026-04-28 04:30 33.58590 130.44548 32 ft 4 kts 244°
2026-04-28 04:30 33.58601 130.44577 32 ft 4 kts 246°
2026-04-28 04:30 33.58612 130.44607 32 ft 4 kts 250°
2026-04-28 04:30 33.58619 130.44638 35 ft 4 kts 264°
2026-04-28 04:31 33.58617 130.44665 36 ft 4 kts 321°
2026-04-28 04:31 33.58614 130.44668 34 ft 1 kts 331°
2026-04-28 04:33 33.58622 130.44662 36 ft 5 kts 331°
2026-04-28 04:33 33.58682 130.44621 35 ft 15 kts 330°
2026-04-28 04:34 33.58798 130.44543 30 ft 21 kts 330°
2026-04-28 04:34 33.58925 130.44461 31 ft 20 kts 331°
2026-04-28 04:34 33.59048 130.44381 28 ft 20 kts 331°
2026-04-28 04:34 33.59165 130.44300 30 ft 19 kts 330°
2026-04-28 04:35 33.59280 130.44225 28 ft 19 kts 331°
2026-04-28 04:35 33.59391 130.44151 29 ft 18 kts 331°
2026-04-28 04:35 33.59482 130.44090 28 ft 2 kts 330°
2026-04-28 04:36 33.59485 130.44088 28 ft 2 kts 330°
2026-04-28 04:36 33.59515 130.44073 27 ft 8 kts 346°
2026-04-28 04:36 33.59571 130.44100 26 ft 10 kts 69°
2026-04-28 04:37 33.59542 130.44172 28 ft 12 kts 149°
2026-04-28 04:37 33.59222 130.44390 29 ft 94 kts 150°
2026-04-28 04:37 33.58448 130.44911 56 ft 157 kts 152°
2026-04-28 04:37 33.57441 130.45596 747 ft 167 kts 153°
2026-04-28 04:38 33.56452 130.46329 1626 ft 171 kts 157°
2026-04-28 04:38 33.55335 130.47077 1952 ft 201 kts 156°
2026-04-28 04:38 33.54018 130.47954 2316 ft 228 kts 155°
2026-04-28 04:38 33.52590 130.48917 2743 ft 248 kts 154°
2026-04-28 04:39 33.51039 130.49968 3280 ft 260 kts 154°
2026-04-28 04:39 33.49445 130.51055 4055 ft 266 kts 154°
2026-04-28 04:39 33.47823 130.52159 4887 ft 269 kts 155°
2026-04-28 04:39 33.46171 130.53282 5588 ft 278 kts 155°
2026-04-28 04:40 33.44456 130.54444 6208 ft 288 kts 156°
2026-04-28 04:40 33.42610 130.55252 6933 ft 277 kts 181°
2026-04-28 04:40 33.40763 130.54982 7765 ft 264 kts 206°
2026-04-28 04:40 33.39222 130.53860 8541 ft 258 kts 226°
2026-04-28 04:41 33.38107 130.52196 9281 ft 258 kts 240°
2026-04-28 04:41 33.37217 130.50314 9977 ft 262 kts 246°
2026-04-28 04:41 33.36829 130.48155 10384 ft 278 kts 269°
2026-04-28 04:41 33.37269 130.45801 10568 ft 307 kts 291°
2026-04-28 04:42 33.38539 130.43614 10779 ft 335 kts 311°
2026-04-28 04:42 33.40478 130.41937 11278 ft 351 kts 323°
2026-04-28 04:42 33.42602 130.40454 11966 ft 356 kts 325°
2026-04-28 04:42 33.44776 130.39010 12687 ft 359 kts 325°
2026-04-28 04:43 33.46975 130.37557 13383 ft 362 kts 325°
2026-04-28 04:43 33.49163 130.36101 14051 ft 366 kts 325°
2026-04-28 04:43 33.51529 130.34883 14760 ft 375 kts 336°
2026-04-28 04:43 33.54096 130.34188 15526 ft 380 kts 341°
2026-04-28 04:44 33.56561 130.33200 16195 ft 367 kts 322°
2026-04-28 04:44 33.58573 130.31384 16930 ft 359 kts 313°
2026-04-28 04:44 33.60508 130.29472 17647 ft 362 kts 314°
2026-04-28 04:44 33.62530 130.27636 18310 ft 366 kts 317°
2026-04-28 04:45 33.64638 130.25891 18852 ft 370 kts 319°
2026-04-28 04:45 33.66821 130.24212 19375 ft 375 kts 320°
2026-04-28 04:45 33.69059 130.22576 19898 ft 378 kts 321°
2026-04-28 04:45 33.71337 130.20963 20426 ft 381 kts 321°
2026-04-28 04:46 33.73641 130.19358 20964 ft 385 kts 321°
2026-04-28 04:46 33.75969 130.17749 21524 ft 388 kts 321°
2026-04-28 04:46 33.78317 130.16128 22045 ft 390 kts 321°
2026-04-28 04:46 33.80681 130.14500 22541 ft 393 kts 321°
2026-04-28 04:47 33.83064 130.12858 22988 ft 396 kts 321°
2026-04-28 04:47 33.85459 130.11205 23430 ft 398 kts 321°
2026-04-28 04:47 33.87869 130.09541 23810 ft 400 kts 321°
2026-04-28 04:47 33.90287 130.07870 24197 ft 402 kts 321°
2026-04-28 04:48 33.92717 130.06190 24580 ft 403 kts 321°
2026-04-28 04:48 33.95146 130.04509 24957 ft 404 kts 321°
2026-04-28 04:48 33.97589 130.02817 25391 ft 405 kts 321°
2026-04-28 04:48 34.00017 130.01137 25934 ft 401 kts 320°
2026-04-28 04:49 34.02435 129.99461 26341 ft 401 kts 320°
2026-04-28 04:49 34.04861 129.97773 26637 ft 404 kts 320°
2026-04-28 04:49 34.07305 129.96071 26927 ft 407 kts 320°
2026-04-28 04:49 34.09764 129.94359 27234 ft 409 kts 320°
2026-04-28 04:50 34.12227 129.92646 27602 ft 409 kts 320°
2026-04-28 04:50 34.13853 129.91515 27901 ft 407 kts 320°
2026-04-28 04:50 34.16316 129.89799 27971 ft 409 kts 320°
2026-04-28 04:50 34.19566 129.87536 27987 ft 405 kts 320°
2026-04-28 04:51 34.22005 129.85834 27995 ft 405 kts 320°
2026-04-28 04:51 34.26084 129.82960 28015 ft 403 kts 318°
2026-04-28 04:51 34.28342 129.81008 27999 ft 397 kts 313°
2026-04-28 04:52 34.30503 129.78938 28006 ft 397 kts 312°
2026-04-28 04:52 34.32656 129.76845 27997 ft 397 kts 312°
2026-04-28 04:52 34.34784 129.74776 27995 ft 398 kts 312°
2026-04-28 04:52 34.36975 129.72656 27991 ft 398 kts 312°
2026-04-28 04:53 34.39111 129.70597 27990 ft 399 kts 312°
2026-04-28 04:53 34.41287 129.68507 27989 ft 399 kts 312°
2026-04-28 04:53 34.43460 129.66424 27986 ft 399 kts 313°
2026-04-28 04:53 34.45641 129.64334 27987 ft 399 kts 313°
2026-04-28 04:54 34.47819 129.62248 27986 ft 399 kts 313°
2026-04-28 04:54 34.50000 129.60157 27986 ft 399 kts 313°
2026-04-28 04:54 34.52177 129.58068 27985 ft 399 kts 313°
2026-04-28 04:54 34.54355 129.55976 27993 ft 399 kts 312°
2026-04-28 04:55 34.56528 129.53888 28019 ft 400 kts 312°
2026-04-28 04:55 34.58712 129.51788 27988 ft 400 kts 312°
2026-04-28 04:55 34.60892 129.49689 27993 ft 400 kts 312°
2026-04-28 04:55 34.63073 129.47589 27987 ft 400 kts 312°
2026-04-28 04:56 34.65253 129.45489 27986 ft 400 kts 312°
2026-04-28 04:56 34.67429 129.43387 27990 ft 400 kts 312°
2026-04-28 04:56 34.69610 129.41284 27977 ft 400 kts 312°
2026-04-28 04:56 34.71790 129.39179 27976 ft 400 kts 312°
2026-04-28 04:57 34.73967 129.37075 27981 ft 400 kts 312°
2026-04-28 04:57 34.76145 129.34969 27998 ft 400 kts 312°
2026-04-28 04:57 34.77585 129.33576 27993 ft 400 kts 312°
2026-04-28 04:57 34.80497 129.30760 27983 ft 399 kts 312°
2026-04-28 04:58 34.82672 129.28659 27976 ft 399 kts 312°
2026-04-28 04:58 34.84848 129.26558 27975 ft 399 kts 312°
2026-04-28 04:58 34.87023 129.24456 27976 ft 399 kts 312°
2026-04-28 04:58 34.89191 129.22359 27997 ft 398 kts 312°
2026-04-28 04:59 34.91363 129.20257 27979 ft 398 kts 312°
2026-04-28 04:59 34.93529 129.18157 27977 ft 398 kts 312°
2026-04-28 04:59 34.95694 129.16058 27968 ft 397 kts 312°
2026-04-28 04:59 34.97854 129.13961 27964 ft 397 kts 312°
2026-04-28 05:00 34.99984 129.11893 27986 ft 397 kts 312°
2026-04-28 05:00 35.02140 129.09797 27981 ft 396 kts 312°
2026-04-28 05:00 35.04295 129.07701 27971 ft 396 kts 312°
2026-04-28 05:00 35.06445 129.05608 27963 ft 396 kts 312°
2026-04-28 05:01 35.08600 129.03510 27972 ft 396 kts 312°
2026-04-28 05:01 35.10755 129.01413 27953 ft 396 kts 312°
2026-04-28 05:01 35.13029 128.99468 27951 ft 404 kts 319°
2026-04-28 05:01 35.15563 128.97891 27976 ft 411 kts 324°
2026-04-28 05:02 35.18151 128.96402 27935 ft 411 kts 324°
2026-04-28 05:02 35.20744 128.94899 27953 ft 412 kts 323°
2026-04-28 05:02 35.23323 128.93392 27949 ft 411 kts 323°
2026-04-28 05:02 35.25898 128.91878 27951 ft 411 kts 323°
2026-04-28 05:03 35.28475 128.90358 27942 ft 411 kts 323°
2026-04-28 05:03 35.31054 128.88846 27969 ft 410 kts 323°
2026-04-28 05:03 35.33624 128.87323 27939 ft 411 kts 323°
2026-04-28 05:03 35.36195 128.85814 27964 ft 409 kts 322°
2026-04-28 05:04 35.38757 128.84276 27947 ft 410 kts 322°
2026-04-28 05:04 35.41322 128.82743 27953 ft 410 kts 323°
2026-04-28 05:04 35.43886 128.81216 27979 ft 410 kts 323°
2026-04-28 05:04 35.46456 128.79689 27955 ft 410 kts 322°
2026-04-28 05:05 35.49022 128.78161 27968 ft 410 kts 322°
2026-04-28 05:05 35.51591 128.76632 27952 ft 410 kts 322°
2026-04-28 05:05 35.54161 128.75106 27951 ft 410 kts 323°
2026-04-28 05:05 35.56725 128.73586 27976 ft 409 kts 322°
2026-04-28 05:06 35.59291 128.72066 27958 ft 409 kts 322°
2026-04-28 05:06 35.61849 128.70542 27968 ft 408 kts 322°
2026-04-28 05:06 35.64416 128.69031 27970 ft 408 kts 322°
2026-04-28 05:06 35.66973 128.67499 27958 ft 409 kts 322°
2026-04-28 05:07 35.69532 128.65962 28004 ft 410 kts 322°
2026-04-28 05:07 35.72105 128.64436 27949 ft 412 kts 323°
2026-04-28 05:07 35.74648 128.62938 27980 ft 411 kts 322°
2026-04-28 05:07 35.77220 128.61379 27943 ft 412 kts 322°
2026-04-28 05:08 35.79763 128.59779 27961 ft 407 kts 318°
2026-04-28 05:08 35.82042 128.57817 28025 ft 395 kts 311°
2026-04-28 05:08 35.84099 128.55583 27970 ft 392 kts 307°
2026-04-28 05:08 35.86060 128.53256 27912 ft 390 kts 306°
2026-04-28 05:09 35.87994 128.50914 27925 ft 389 kts 305°
2026-04-28 05:09 35.89930 128.48574 27914 ft 389 kts 305°
2026-04-28 05:09 35.91860 128.46239 27923 ft 389 kts 306°
2026-04-28 05:09 35.93796 128.43907 27928 ft 389 kts 306°
2026-04-28 05:10 35.95741 128.41577 27967 ft 389 kts 306°
2026-04-28 05:10 35.97684 128.39256 27967 ft 389 kts 306°
2026-04-28 05:10 35.99635 128.36929 27967 ft 389 kts 306°
2026-04-28 05:10 36.01581 128.34605 27983 ft 389 kts 306°
2026-04-28 05:11 36.03528 128.32279 27977 ft 389 kts 306°
2026-04-28 05:11 36.05474 128.29970 27961 ft 387 kts 306°
2026-04-28 05:11 36.07458 128.27708 27957 ft 387 kts 306°
2026-04-28 05:11 36.09368 128.25386 27959 ft 386 kts 305°
2026-04-28 05:12 36.11275 128.23048 27952 ft 385 kts 305°
2026-04-28 05:12 36.13184 128.20725 27958 ft 386 kts 305°
2026-04-28 05:12 36.15107 128.18403 27969 ft 386 kts 305°
2026-04-28 05:12 36.17030 128.16086 27963 ft 387 kts 305°
2026-04-28 05:13 36.18962 128.13762 27964 ft 387 kts 305°
2026-04-28 05:13 36.20898 128.11442 27971 ft 388 kts 306°
2026-04-28 05:13 36.22836 128.09115 27965 ft 388 kts 305°
2026-04-28 05:13 36.24785 128.06797 27968 ft 392 kts 308°
2026-04-28 05:14 36.27112 128.04883 27963 ft 411 kts 321°
2026-04-28 05:14 36.29733 128.03407 27984 ft 418 kts 325°
2026-04-28 05:14 36.32541 128.02279 27932 ft 437 kts 336°
2026-04-28 05:14 36.35588 128.01734 27981 ft 446 kts 340°
2026-04-28 05:15 36.38695 128.01343 27975 ft 449 kts 341°
2026-04-28 05:15 36.41813 128.00994 27940 ft 450 kts 341°
2026-04-28 05:15 36.44919 128.00625 27970 ft 448 kts 341°
2026-04-28 05:15 36.48014 128.00224 27960 ft 447 kts 341°
2026-04-28 05:16 36.51106 127.99800 27967 ft 446 kts 340°
2026-04-28 05:16 36.54187 127.99370 27965 ft 446 kts 340°
2026-04-28 05:16 36.57271 127.98942 27492 ft 444 kts 341°
2026-04-28 05:17 36.63316 127.98142 26458 ft 431 kts 341°
2026-04-28 05:17 36.66283 127.97750 25932 ft 426 kts 341°
2026-04-28 05:17 36.69209 127.97359 25408 ft 422 kts 341°
2026-04-28 05:17 36.72124 127.96959 24870 ft 421 kts 342°
2026-04-28 05:18 36.75032 127.96569 24346 ft 420 kts 340°
2026-04-28 05:18 36.77931 127.96183 23844 ft 417 kts 341°
2026-04-28 05:18 36.80815 127.95772 23244 ft 413 kts 337°
2026-04-28 05:18 36.83437 127.94710 22662 ft 381 kts 319°
2026-04-28 05:19 36.85533 127.92880 22093 ft 358 kts 307°
2026-04-28 05:19 36.87155 127.90638 21534 ft 340 kts 296°
2026-04-28 05:19 36.88473 127.88236 21066 ft 333 kts 295°
2026-04-28 05:19 36.89755 127.85845 20588 ft 330 kts 296°
2026-04-28 05:20 36.91070 127.83507 20074 ft 328 kts 296°
2026-04-28 05:20 36.92356 127.81176 19593 ft 325 kts 296°
2026-04-28 05:20 36.93608 127.78893 19136 ft 320 kts 295°
2026-04-28 05:20 36.94861 127.76598 18666 ft 319 kts 297°
2026-04-28 05:21 36.96162 127.74315 18193 ft 317 kts 298°
2026-04-28 05:21 36.97424 127.72105 17662 ft 315 kts 298°
2026-04-28 05:21 36.98689 127.69898 17217 ft 310 kts 298°
2026-04-28 05:21 36.99948 127.67679 16718 ft 307 kts 298°
2026-04-28 05:22 37.01160 127.65527 16233 ft 307 kts 301°
2026-04-28 05:22 37.02724 127.63676 16056 ft 315 kts 317°
2026-04-28 05:22 37.04654 127.62307 16016 ft 323 kts 324°
2026-04-28 05:22 37.06667 127.61148 15983 ft 314 kts 326°
2026-04-28 05:23 37.08620 127.60066 15961 ft 299 kts 326°
2026-04-28 05:23 37.10472 127.59017 15961 ft 285 kts 324°
2026-04-28 05:23 37.12225 127.58002 15949 ft 272 kts 324°
2026-04-28 05:23 37.13904 127.57020 15895 ft 261 kts 323°
2026-04-28 05:24 37.15564 127.56036 15207 ft 272 kts 324°
2026-04-28 05:24 37.17177 127.54741 14474 ft 275 kts 309°
2026-04-28 05:24 37.18363 127.52923 14129 ft 267 kts 299°
2026-04-28 05:24 37.19409 127.51010 13834 ft 265 kts 299°
2026-04-28 05:25 37.20448 127.49112 13452 ft 264 kts 300°
2026-04-28 05:25 37.21493 127.47219 13095 ft 263 kts 300°
2026-04-28 05:25 37.22534 127.45340 12734 ft 262 kts 300°
2026-04-28 05:25 37.23576 127.43461 12400 ft 261 kts 301°
2026-04-28 05:26 37.24610 127.41596 12090 ft 260 kts 301°
2026-04-28 05:26 37.25641 127.39737 11737 ft 260 kts 301°
2026-04-28 05:26 37.26673 127.37879 11424 ft 258 kts 301°
2026-04-28 05:26 37.27477 127.35901 11093 ft 254 kts 282°
2026-04-28 05:27 37.27695 127.33732 10885 ft 249 kts 269°
2026-04-28 05:27 37.27484 127.31603 10752 ft 243 kts 262°
2026-04-28 05:27 37.27163 127.29530 10466 ft 242 kts 261°
2026-04-28 05:27 37.26840 127.27454 10107 ft 243 kts 262°
2026-04-28 05:28 37.26525 127.25373 9828 ft 241 kts 262°
2026-04-28 05:28 37.26218 127.23306 9531 ft 240 kts 262°
2026-04-28 05:28 37.25915 127.21251 9192 ft 240 kts 262°
2026-04-28 05:28 37.25624 127.19179 8829 ft 241 kts 266°
2026-04-28 05:29 37.25832 127.17122 8470 ft 240 kts 291°
2026-04-28 05:29 37.26631 127.15303 8242 ft 238 kts 307°
2026-04-28 05:29 37.27730 127.13841 8207 ft 223 kts 312°
2026-04-28 05:29 37.28819 127.12534 8103 ft 210 kts 313°
2026-04-28 05:30 37.29850 127.11312 7987 ft 197 kts 313°
2026-04-28 05:30 37.30814 127.10164 7846 ft 187 kts 313°
2026-04-28 05:30 37.31799 127.08978 7104 ft 204 kts 313°
2026-04-28 05:30 37.32847 127.07713 6378 ft 213 kts 314°
2026-04-28 05:31 37.33930 127.06404 5668 ft 217 kts 315°
2026-04-28 05:31 37.34986 127.05124 5345 ft 205 kts 315°
2026-04-28 05:31 37.35984 127.03915 5078 ft 194 kts 315°
2026-04-28 05:31 37.36927 127.02769 4819 ft 182 kts 314°
2026-04-28 05:32 37.37817 127.01687 4582 ft 174 kts 315°
2026-04-28 05:32 37.38663 127.00660 4355 ft 164 kts 314°
2026-04-28 05:32 37.39464 126.99689 4172 ft 158 kts 315°
2026-04-28 05:32 37.40300 126.98761 3975 ft 161 kts 317°
2026-04-28 05:33 37.41124 126.97809 3740 ft 161 kts 316°
2026-04-28 05:33 37.41922 126.96846 3502 ft 157 kts 314°
2026-04-28 05:33 37.42705 126.95879 3311 ft 160 kts 314°
2026-04-28 05:33 37.43499 126.94895 3092 ft 160 kts 313°
2026-04-28 05:34 37.44251 126.93953 2900 ft 146 kts 313°
2026-04-28 05:34 37.44973 126.93041 2694 ft 147 kts 313°
2026-04-28 05:34 37.45691 126.92137 2532 ft 144 kts 313°
2026-04-28 05:34 37.46383 126.91265 2298 ft 138 kts 313°
2026-04-28 05:35 37.47048 126.90426 2161 ft 134 kts 310°
2026-04-28 05:35 37.47688 126.89570 1957 ft 134 kts 310°
2026-04-28 05:35 37.48333 126.88739 1732 ft 133 kts 312°
2026-04-28 05:35 37.49000 126.87965 1541 ft 127 kts 313°
2026-04-28 05:36 37.49631 126.87181 1338 ft 129 kts 309°
2026-04-28 05:36 37.50281 126.86374 1252 ft 133 kts 310°
2026-04-28 05:36 37.50728 126.85842 1218 ft 134 kts 313°
2026-04-28 05:36 37.51630 126.84748 1029 ft 135 kts 308°
2026-04-28 05:37 37.52049 126.84169 948 ft 135 kts 308°
2026-04-28 05:37 37.52725 126.83297 611 ft 140 kts 309°
2026-04-28 05:37 37.53385 126.82435 353 ft 136 kts 308°
2026-04-28 05:37 37.54076 126.81566 300 ft 141 kts 311°
2026-04-28 05:38 37.54768 126.80721 106 ft 136 kts 310°
2026-04-28 05:38 37.55364 126.79955 47 ft 97 kts 315°
2026-04-28 05:38 37.55710 126.79520 49 ft 57 kts 314°
2026-04-28 05:38 37.55968 126.79204 47 ft 41 kts 319°
2026-04-28 05:39 37.56159 126.79027 45 ft 29 kts 334°
2026-04-28 05:39 37.56341 126.78955 47 ft 20 kts 345°
2026-04-28 05:39 37.56406 126.78942 45 ft 7 kts 15°
2026-04-28 05:39 37.56444 126.78979 47 ft 7 kts 53°
2026-04-28 05:40 37.56459 126.79036 47 ft 7 kts 87°
2026-04-28 05:40 37.56458 126.79096 47 ft 7 kts 100°
2026-04-28 05:40 37.56448 126.79155 47 ft 7 kts 105°
2026-04-28 05:40 37.56427 126.79211 47 ft 8 kts 137°
2026-04-28 05:41 37.56392 126.79263 46 ft 8 kts 114°
2026-04-28 05:41 37.56347 126.79314 46 ft 9 kts 133°
2026-04-28 05:41 37.56305 126.79381 47 ft 10 kts 114°
2026-04-28 05:41 37.56335 126.79456 47 ft 10 kts 49°
2026-04-28 05:42 37.56388 126.79524 47 ft 11 kts 44°
2026-04-28 05:42 37.56447 126.79597 47 ft 12 kts 45°
2026-04-28 05:42 37.56508 126.79674 46 ft 13 kts 45°
2026-04-28 05:42 37.56573 126.79756 47 ft 14 kts 44°
2026-04-28 05:43 37.56639 126.79837 46 ft 13 kts 44°
2026-04-28 05:43 37.56670 126.79875 46 ft 5 kts 46°
2026-04-28 05:43 37.56680 126.79903 47 ft 0 kts 95°
2026-04-28 05:43 37.56679 126.79904 47 ft 1 kts 101°
2026-04-28 05:44 37.56667 126.79916 44 ft 3 kts 164°
2026-04-28 05:44 37.56642 126.79922 46 ft 2 kts 170°
2026-04-28 05:44 37.56630 126.79925 47 ft 2 kts 166°
2026-04-28 05:44 37.56619 126.79928 45 ft 2 kts 169°
2026-04-28 05:45 37.56615 126.79929 46 ft 0 kts 169°